User: anonymous   Login
Location: Newark
(36.6333°N, 138.1833°E)
Time: 09:10:22
(UTC+00:00)
Language:

NUDT-PHONESAT - Orbit

View from above orbital plane
View from above orbital plane
View from above satellite
View from above satellite

Ground track
Ground track

The orbit data is extracted from the following two-line orbital elements,

1 40900U 15049B   20157.83970113  .00002268  00000-0  96172-4 0  9996
2 40900  97.4303 168.8951 0013420  31.7827  91.9355 15.24079971261429
Epoch (UTC): 05 June 2020 20:09:10
Eccentricity: 0.0013420
inclination: 97.4303°
perigee height: 484 km
apogee height: 503 km
right ascension of ascending node: 168.8951°
argument of perigee: 31.7827°
revolutions per day: 15.24079971
mean anomaly at epoch: 91.9355°
orbit number at epoch: 26142

The dashed part of the orbit path shows where the satellite is in the earth's shadow,  

DLR